Location: Beutels
(47.8767°N, 9.8584°E)
Time: 00:13:22
(UTC+00:00)

Cosmos 1975 - Pass Details

Date: 19 May 2025
Orbit: 487 x 506 km, 82.5° (Epoch: 15 June)

Event Time Altitude Azimuth Distance (km) Brightness Sun altitude
Rises 22:45:17 0° 343° (NNW) 2,573 7.7 -21.8°
Reaches altitude 10° 22:47:29 10° 335° (NNW) 1,686 6.3 -21.8°
Enters shadow 22:50:54 38° 267° (W) 765 3.5 -21.9°
